Find Insat 2B

NORAD ID: 22724 Int'l Des: 1993-048 Owner: ISRO Country: IN operational
HEOCIRCULAR

当前视图

正在加载3D地球...

关于 Insat 2B

正在加载描述...

即将过境

Passes for default location (London). Set your location on the main map for personalized predictions.

高度历史

Loading altitude history...

两行轨道根数

1 22724U 93048B 26150.49142470 -.00000290 00000-0 00000+0 0 9997
2 22724 14.4456 2.7294 0015342 223.0501 140.0933 0.99975797120404
Epoch: May 30, 2026 • Age: 6 hours

当前状态

高度 35907.4 km
速度 3.07 km/s
星下点 14.36°N, 59.24°W
发射日期 Jul 22, 1993
运行时间 32.8 years
类型 other

技术详情

分类 Payload
质量 1931.00 kg
干质量 916.00 kg
总质量 1931.00 kg
长度 1.70 m
直径 1.90 m
跨度 23.00 m
形状 Box + Pan + Ant
制造商 ISRO
平台类型 I2K
阶段状态 In Orbit
所有者/国家 ISRO/IN

Most Searched